This is the latest recevied weather packets stored in our database for station/object W1REE. If no packets are shown the sender has not sent any weather packets the latest 1 day(s).
| Time | Temp. | Humidity | Pressure | Rain* | Wind** | Luminosity | Snow |
|---|---|---|---|---|---|---|---|
| 1777961106 | 9.44° C | 76% | 1014.5 hPa | 0 mm | 0 m/s | 0 W/m² | - |
| 1777960802 | 9.44° C | 71% | 1014.4 hPa | 0 mm | 0 m/s | 0 W/m² | - |
| 1777960498 | 9.44° C | 70% | 1014.7 hPa | 0 mm | 0 m/s | 0 W/m² | - |
| 1777960195 | 10° C | 68% | 1014.6 hPa | 0 mm | 0 m/s | 0 W/m² | - |
| 1777959892 | 10° C | 66% | 1014.7 hPa | 0 mm | 0 m/s | 0 W/m² | - |
| 1777959590 | 10° C | 65% | 1014.5 hPa | 0 mm | 0 m/s | 0 W/m² | - |
| 1777959287 | 10° C | 64% | 1014.5 hPa | 0 mm | 0.45 m/s, 308° | 0 W/m² | - |
| 1777958984 | 10° C | 64% | 1014.5 hPa | 0 mm | 0.89 m/s, 288° | 0 W/m² | - |
| 1777958681 | 10° C | 64% | 1014.5 hPa | 0 mm | 0.89 m/s, 321° | 0 W/m² | - |
| 1777958378 | 10° C | 64% | 1014.6 hPa | 0 mm | 0.89 m/s, 302° | 0 W/m² | - |
| 1777958075 | 10° C | 65% | 1014.6 hPa | 0 mm | 0.45 m/s, 332° | 0 W/m² | - |
| 1777957773 | 10° C | 63% | 1014.6 hPa | 0 mm | 1.79 m/s, 336° | 0 W/m² | - |
| 1777957471 | 10° C | 64% | 1014.5 hPa | 0 mm | 0 m/s | 0 W/m² | - |
| 1777957168 | 10° C | 65% | 1014.4 hPa | 0 mm | 0.45 m/s, 343° | 0 W/m² | - |
| 1777956865 | 9.44° C | 65% | 1014.5 hPa | 0 mm | 0.45 m/s, 344° | 0 W/m² | - |
| 1777956561 | 8.89° C | 66% | 1014.2 hPa | 0 mm | 0 m/s | 0 W/m² | - |
| 1777956259 | 8.89° C | 67% | 1014.4 hPa | 0 mm | 0 m/s | 0 W/m² | - |
| 1777955955 | 8.89° C | 68% | 1014.2 hPa | 0 mm | 0 m/s | 0 W/m² | - |
| 1777955651 | 9.44° C | 66% | 1014.4 hPa | 0 mm | 0 m/s | 0 W/m² | - |
| 1777955348 | 9.44° C | 66% | 1014.2 hPa | 0 mm | 0 m/s | 0 W/m² | - |
| 1777955044 | 9.44° C | 66% | 1014.4 hPa | 0 mm | 0 m/s | 0 W/m² | - |
| 1777954742 | 9.44° C | 65% | 1014.2 hPa | 0 mm | 0 m/s | 0 W/m² | - |
| 1777954439 | 10° C | 64% | 1014.1 hPa | 0 mm | 0 m/s | 0 W/m² | - |
| 1777954136 | 10° C | 63% | 1013.9 hPa | 0 mm | 0 m/s | 0 W/m² | - |
| 1777953833 | 10° C | 63% | 1014 hPa | 0 mm | 0 m/s | 0 W/m² | - |
* Rain latest hour (hover to see other rain measurements)
** Current wind speed in m/s (hover to see current wind gust speed)